Weather History for Nantucket, MA

Change the Weather History Date:

Wednesday, January 9, 2013

  Actual Average Record
Temperature  
Mean Temperature 37 °F -  
Max Temperature 46 °F 33 °F 54 °F (1978)
Min Temperature 28 °F 16 °F 2 °F (1968)
Degree Days  
Heating Degree Days 28    
Moisture  
Dew Point 37 °F    
Average Humidity 93    
Maximum Humidity 100    
Minimum Humidity 76    
Precipitation  
Precipitation 0.00 in - - ()
Sea Level Pressure  
Sea Level Pressure 30.28 in    
Wind  
Wind Speed 5 mph (SW)    
Max Wind Speed 24 mph    
Max Gust Speed 31 mph    
Visibility 6 miles    
Events Fog    
Averages and records for this station are not official NWS values.
T = Trace of Precipitation, MM = Missing Value Source: NWS Daily Summary

Daily Weather History Graph

Daily Weather History Graph

Search for Another Location

Airport:

Trip Planner

Search our weather history database for the weather conditions in past years. The results will help you decide how hot, cold, wet, or windy it might be!

Date:

Astronomy

Jan. 09, 2013 Rise Set
Actual Time 7:05 AM EST 4:29 PM EST
Civil Twilight 6:34 AM EST 5:00 PM EST
Nautical Twilight 6:00 AM EST 5:34 PM EST
Astronomical Twilight 5:27 AM EST 6:08 PM EST
Moon 4:41 AM EST (1/9) 2:27 PM EST (1/9)
Length of Visible Light 10h 25m
Length of Day
9h 24m
Waning Crescent, 6% of the Moon is Illuminated
Jan 9
Waning Crescent
Jan 11
New
Jan 18
First Quarter
Jan 26
Full
Feb 3
Last Quarter

Hourly Weather History & Observations

Time (EST) Temp. Windchill Dew Point Humidity Pressure Visibility Wind Dir Wind Speed Gust Speed Precip Events Conditions
12:53 AM 39.9 °F 35.1 °F 37.0 °F 89% 30.38 in 10.0 mi West 6.9 mph - N/A   Clear
1:53 AM 37.9 °F 34.4 °F 36.0 °F 93% 30.39 in 8.0 mi West 4.6 mph - N/A   Clear
2:53 AM 34.0 °F - 33.1 °F 96% 30.38 in 4.0 mi Calm Calm - N/A   Clear
3:04 AM 28.4 °F 24.6 °F 28.4 °F 100% 30.38 in 1.5 mi WSW 3.5 mph - N/A   Clear
3:08 AM 28.4 °F 24.6 °F 28.4 °F 100% 30.38 in 0.5 mi WSW 3.5 mph - N/A Fog Light Freezing Fog
3:15 AM 30.2 °F - 30.2 °F 100% 30.38 in 0.2 mi Calm Calm - N/A Fog Light Freezing Fog
3:53 AM 32.0 °F - 30.9 °F 96% 30.38 in 0.2 mi Calm Calm - N/A Fog Fog
4:31 AM 35.6 °F 32.8 °F 33.8 °F 93% 30.38 in 1.0 mi NW 3.5 mph - N/A   Mist
4:34 AM 35.6 °F 32.8 °F 35.6 °F 100% 30.37 in 2.0 mi WNW 3.5 mph - N/A   Partly Cloudy
4:50 AM 33.8 °F - 33.8 °F 100% 30.37 in 1.0 mi Calm Calm - N/A   Clear
4:53 AM 32.0 °F - 32.0 °F 100% 30.37 in 0.8 mi Calm Calm - N/A   Clear
5:03 AM 33.8 °F 29.6 °F 33.8 °F 100% 30.36 in 2.5 mi WNW 4.6 mph - N/A   Clear
5:10 AM 30.2 °F 25.4 °F 30.2 °F 100% 30.36 in 3.0 mi NW 4.6 mph - N/A   Clear
5:53 AM 35.1 °F 32.2 °F 35.1 °F 100% 30.37 in 6.0 mi WNW 3.5 mph - N/A   Clear
6:35 AM 28.4 °F - 28.4 °F 100% 30.38 in 6.0 mi Calm Calm - N/A   Partly Cloudy
6:53 AM 30.9 °F - 30.0 °F 96% 30.39 in 6.0 mi Calm Calm - N/A   Scattered Clouds
7:39 AM 30.2 °F - 30.2 °F 100% 30.40 in 5.0 mi Calm Calm - N/A   Overcast
7:53 AM 30.9 °F - 30.9 °F 100% 30.40 in 0.2 mi Calm Calm - N/A Fog Light Freezing Fog
8:27 AM 35.6 °F 32.8 °F 35.6 °F 100% 30.41 in 4.0 mi SSE 3.5 mph - N/A   Mostly Cloudy
8:53 AM 39.9 °F - 39.9 °F 100% 30.40 in 5.0 mi Calm Calm - N/A   Mostly Cloudy
9:53 AM 44.1 °F 39.5 °F 41.0 °F 89% 30.38 in 6.0 mi SSE 8.1 mph - N/A   Mostly Cloudy
10:53 AM 44.1 °F 39.0 °F 39.9 °F 85% 30.37 in 7.0 mi South 9.2 mph - N/A   Mostly Cloudy
11:53 AM 44.1 °F 39.0 °F 39.0 °F 82% 30.32 in 8.0 mi South 9.2 mph - N/A   Mostly Cloudy
1:11 PM 44.6 °F 40.7 °F 39.2 °F 81% 30.24 in 8.0 mi South 6.9 mph - N/A   Overcast
1:51 PM 44.6 °F 41.4 °F 39.2 °F 81% 30.22 in 7.0 mi SSE 5.8 mph - N/A   Scattered Clouds
1:53 PM 44.1 °F 40.8 °F 39.9 °F 85% 30.22 in 7.0 mi SSE 5.8 mph - N/A   Scattered Clouds
2:21 PM 44.6 °F 40.2 °F 41.0 °F 87% 30.22 in 7.0 mi SSE 8.1 mph - N/A   Overcast
2:29 PM 44.6 °F 42.2 °F 41.0 °F 87% 30.22 in 8.0 mi SSW 4.6 mph - N/A   Overcast
2:53 PM 45.0 °F 42.6 °F 42.1 °F 90% 30.23 in 8.0 mi South 4.6 mph - N/A   Overcast
3:09 PM 44.6 °F - 42.8 °F 93% 30.22 in 7.0 mi Calm Calm - N/A   Overcast
3:24 PM 44.6 °F 42.2 °F 42.8 °F 93% 30.21 in 7.0 mi South 4.6 mph - N/A   Scattered Clouds
3:53 PM 43.0 °F 39.5 °F 41.0 °F 93% 30.18 in 5.0 mi South 5.8 mph - N/A   Scattered Clouds
4:53 PM 42.1 °F 37.1 °F 41.0 °F 96% 30.15 in 4.0 mi SSW 8.1 mph - N/A   Clear
5:53 PM 44.1 °F 37.7 °F 43.0 °F 96% 30.08 in 8.0 mi South 12.7 mph - N/A   Mostly Cloudy
6:53 PM 45.0 °F 38.9 °F 43.0 °F 93% 30.08 in 9.0 mi SW 12.7 mph - N/A   Partly Cloudy
7:53 PM 46.9 °F - 45.0 °F 93% 30.09 in 9.0 mi WSW 18.4 mph - N/A   Overcast
8:53 PM 46.9 °F - 44.1 °F 90% 30.07 in 9.0 mi WSW 23.0 mph 28.8 mph N/A   Clear
9:53 PM 46.9 °F - 41.0 °F 80% 30.07 in 10.0 mi West 24.2 mph 31.1 mph N/A   Clear
10:53 PM 46.0 °F 38.0 °F 39.9 °F 79% 30.07 in 10.0 mi West 21.9 mph 28.8 mph N/A   Clear
11:53 PM 45.0 °F 36.4 °F 37.9 °F 76% 30.08 in 9.0 mi West 23.0 mph 31.1 mph N/A   Clear